OK3FM-14 Weather Reports


time (UTC)temp
C
wind
direction
speed
KPH
gust
KPH
rain 1hr
cm
rain 24hr
cm
rain mn
cm
humidity
%
barometer
mb
20260903100743 22 0.0 0.0 0.00 0.00 0.00 42 1022.2
20260903095743 22 0.0 0.0 0.00 0.00 0.00 42 1022.3
20260903094743 22 0.0 0.0 0.00 0.00 0.00 42 1022.2
20260903093743 21 0.0 0.0 0.00 0.00 0.00 43 1022.2
20260903092743 21 0.0 0.0 0.00 0.00 0.00 45 1022.3
20260903091743 20 0.0 0.0 0.00 0.00 0.00 44 1022.6
20260903090743 20 0.0 0.0 0.00 0.00 0.00 43 1022.4
20260903084743 22 0.0 0.0 0.00 0.00 0.00 42 1022.3
20260903083743 22 0.0 0.0 0.00 0.00 0.00 41 1022.1
20260903082743 22 0.0 0.0 0.00 0.00 0.00 41 1022.1
20260903081743 22 0.0 0.0 0.00 0.00 0.00 40 1022.3
20260903080743 20 0.0 0.0 0.00 0.00 0.00 43 1022.4
20260903075743 21 0.0 0.0 0.00 0.00 0.00 43 1022.3
20260903074743 21 0.0 0.0 0.00 0.00 0.00 41 1022.4
20260903073743 24 0.0 0.0 0.00 0.00 0.00 37 1022.4
20260903072743 25 0.0 0.0 0.00 0.00 0.00 37 1022.5
20260903071743 24 0.0 0.0 0.00 0.00 0.00 38 1022.6
20260903070743 23 0.0 0.0 0.00 0.00 0.00 40 1022.6
20260903065743 24 0.0 0.0 0.00 0.00 0.00 40 1022.6
20260903064743 23 0.0 0.0 0.00 0.00 0.00 42 1022.6
20260903063743 23 0.0 0.0 0.00 0.00 0.00 44 1022.6
20260903062743 22 0.0 0.0 0.00 0.00 0.00 43 1022.6
20260903061743 23 0.0 0.0 0.00 0.00 0.00 43 1022.4
20260903060743 22 0.0 0.0 0.00 0.00 0.00 45 1022.4
20260903055744 21 0.0 0.0 0.00 0.00 0.00 48 1022.5
20260903054744 20 0.0 0.0 0.00 0.00 0.00 51 1022.4
20260903053743 19 0.0 0.0 0.00 0.00 0.00 56 1022.3
20260903052743 18 0.0 0.0 0.00 0.00 0.00 60 1022.3
20260903051743 16 0.0 0.0 0.00 0.00 0.00 64 1022.2
20260903050743 14 0.0 0.0 0.00 0.00 0.00 72 1022.2
20260903045743 13 0.0 0.0 0.00 0.00 0.00 75 1022.2
20260903043743 13 0.0 0.0 0.00 0.00 0.00 79 1022.2
20260903042743 12 0.0 0.0 0.00 0.00 0.00 80 1022.3
20260903041743 12 0.0 0.0 0.00 0.00 0.00 80 1022.4
20260903040743 12 0.0 0.0 0.00 0.00 0.00 81 1022.2
20260903035743 12 0.0 0.0 0.00 0.00 0.00 80 1022.2
20260903034743 12 0.0 0.0 0.00 0.00 0.00 80 1022.0
20260903033743 13 0.0 0.0 0.00 0.00 0.00 80 1021.9
20260903032743 13 0.0 0.0 0.00 0.00 0.00 81 1022.0
20260903031743 13 0.0 0.0 0.00 0.00 0.00 79 1022.1
20260903030743 13 0.0 0.0 0.00 0.00 0.00 79 1022.1
20260903025743 13 0.0 0.0 0.00 0.00 0.00 80 1022.2
20260903024743 13 0.0 0.0 0.00 0.00 0.00 79 1022.3
20260903023743 13 0.0 0.0 0.00 0.00 0.00 78 1022.2
20260903022743 13 0.0 0.0 0.00 0.00 0.00 77 1022.2
20260903021743 14 0.0 0.0 0.00 0.00 0.00 78 1022.2
20260903020743 14 0.0 0.0 0.00 0.00 0.00 76 1022.2
20260903015743 14 0.0 0.0 0.00 0.00 0.00 76 1022.2
20260903014743 14 0.0 0.0 0.00 0.00 0.00 77 1022.2
20260903013743 14 0.0 0.0 0.00 0.00 0.00 77 1022.1
20260903012743 13 0.0 0.0 0.00 0.00 0.00 80 1022.1
20260903011743 13 0.0 0.0 0.00 0.00 0.00 81 1022.1
20260903010743 13 0.0 0.0 0.00 0.00 0.00 82 1022.1
20260903005743 13 0.0 0.0 0.00 0.00 0.00 81 1022.1
20260903004744 13 0.0 0.0 0.00 0.00 0.00 80 1022.2
20260903003744 13 0.0 0.0 0.00 0.00 0.00 79 1022.1
20260903002743 13 0.0 0.0 0.00 0.00 0.00 78 1022.1
20260903001743 13 0.0 0.0 0.00 0.00 0.00 78 1022.2
20260903000745 13 0.0 0.0 0.00 0.00 0.00 78 1022.1
20260902235743 13 0.0 0.0 0.00 0.00 0.00 77 1022.2
20260902234743 13 0.0 0.0 0.00 0.00 0.00 79 1022.2
20260902233743 13 0.0 0.0 0.00 0.00 0.00 78 1022.3
20260902232743 13 0.0 0.0 0.00 0.00 0.00 77 1022.3
20260902231743 13 0.0 0.0 0.00 0.00 0.00 76 1022.3
20260902230743 13 0.0 0.0 0.00 0.00 0.00 77 1022.3
20260902225743 13 0.0 0.0 0.00 0.00 0.00 77 1022.4
20260902224743 13 0.0 0.0 0.00 0.00 0.00 75 1022.4
20260902223743 13 0.0 0.0 0.00 0.00 0.00 76 1022.4
20260902222743 14 0.0 0.0 0.00 0.00 0.00 74 1022.4
20260902221748 14 0.0 0.0 0.00 0.00 0.00 74 1022.4
20260902220741 14 0.0 0.0 0.00 0.00 0.00 73 1022.3
20260902215741 15 0.0 0.0 0.00 0.00 0.00 73 1022.4
20260902214741 15 0.0 0.0 0.00 0.00 0.00 74 1022.3
20260902213743 15 0.0 0.0 0.00 0.00 0.00 73 1022.3
20260902212741 15 0.0 0.0 0.00 0.00 0.00 71 1022.2
20260902211741 15 0.0 0.0 0.00 0.00 0.00 70 1022.2
20260902210742 15 0.0 0.0 0.00 0.00 0.00 69 1022.1
20260902205741 16 0.0 0.0 0.00 0.00 0.00 70 1022.1
20260902204741 16 0.0 0.0 0.00 0.00 0.00 69 1022.1
20260902203742 16 0.0 0.0 0.00 0.00 0.00 67 1021.9
20260902202741 16 0.0 0.0 0.00 0.00 0.00 66 1021.9
20260902201741 17 0.0 0.0 0.00 0.00 0.00 64 1021.9
20260902200741 17 0.0 0.0 0.00 0.00 0.00 63 1021.9
20260902195741 17 0.0 0.0 0.00 0.00 0.00 62 1021.9
20260902194742 18 0.0 0.0 0.00 0.00 0.00 59 1021.8
20260902193742 18 0.0 0.0 0.00 0.00 0.00 58 1021.8
20260902192742 18 0.0 0.0 0.00 0.00 0.00 58 1021.9
20260902191741 18 0.0 0.0 0.00 0.00 0.00 58 1021.8
20260902190742 18 0.0 0.0 0.00 0.00 0.00 58 1021.9
20260902185742 18 0.0 0.0 0.00 0.00 0.00 57 1021.8
20260902184742 18 0.0 0.0 0.00 0.00 0.00 58 1021.6
20260902183742 18 0.0 0.0 0.00 0.00 0.00 59 1021.6
20260902182741 18 0.0 0.0 0.00 0.00 0.00 59 1021.5
20260902181742 18 0.0 0.0 0.00 0.00 0.00 60 1021.4
20260902180741 18 0.0 0.0 0.00 0.00 0.00 57 1021.2
20260902175742 18 0.0 0.0 0.00 0.00 0.00 55 1021.2
20260902174741 19 0.0 0.0 0.00 0.00 0.00 54 1021.1
20260902173741 19 0.0 0.0 0.00 0.00 0.00 53 1021.0
20260902172742 20 0.0 0.0 0.00 0.00 0.00 52 1021.1
20260902171741 20 0.0 0.0 0.00 0.00 0.00 53 1021.0
20260902170742 20 0.0 0.0 0.00 0.00 0.00 50 1021.0
20260902165741 21 0.0 0.0 0.00 0.00 0.00 47 1021.0
20260902164741 21 0.0 0.0 0.00 0.00 0.00 47 1021.0
20260902163741 21 0.0 0.0 0.00 0.00 0.00 45 1020.9
20260902162741 21 0.0 0.0 0.00 0.00 0.00 46 1020.9
20260902161742 21 0.0 0.0 0.00 0.00 0.00 46 1020.9
20260902160741 21 0.0 0.0 0.00 0.00 0.00 44 1020.9
20260902155741 22 0.0 0.0 0.00 0.00 0.00 44 1020.9
20260902154741 22 0.0 0.0 0.00 0.00 0.00 42 1020.9
20260902153741 22 0.0 0.0 0.00 0.00 0.00 42 1020.9
20260902152741 22 0.0 0.0 0.00 0.00 0.00 44 1020.9
20260902151742 22 0.0 0.0 0.00 0.00 0.00 42 1021.0
20260902150741 23 0.0 0.0 0.00 0.00 0.00 39 1020.9
20260902145741 22 0.0 0.0 0.00 0.00 0.00 40 1021.0
20260902144741 22 0.0 0.0 0.00 0.00 0.00 41 1021.0
20260902143741 22 0.0 0.0 0.00 0.00 0.00 40 1021.1
20260902142742 23 0.0 0.0 0.00 0.00 0.00 38 1021.2
20260902141741 23 0.0 0.0 0.00 0.00 0.00 37 1021.2
20260902140742 24 0.0 0.0 0.00 0.00 0.00 37 1021.1
20260902135742 24 0.0 0.0 0.00 0.00 0.00 36 1021.2
20260902134741 23 0.0 0.0 0.00 0.00 0.00 36 1021.3
20260902133741 23 0.0 0.0 0.00 0.00 0.00 38 1021.3
20260902132742 23 0.0 0.0 0.00 0.00 0.00 39 1021.4
20260902131742 23 0.0 0.0 0.00 0.00 0.00 38 1021.3
20260902130741 24 0.0 0.0 0.00 0.00 0.00 36 1021.5
20260902125742 23 0.0 0.0 0.00 0.00 0.00 36 1021.7
20260902124741 23 0.0 0.0 0.00 0.00 0.00 37 1021.8
20260902123741 23 0.0 0.0 0.00 0.00 0.00 36 1021.8
20260902122741 22 0.0 0.0 0.00 0.00 0.00 42 1022.1
20260902121741 22 0.0 0.0 0.00 0.00 0.00 43 1022.1
20260902120742 22 0.0 0.0 0.00 0.00 0.00 40 1022.3
20260902115741 22 0.0 0.0 0.00 0.00 0.00 43 1022.3
20260902114741 22 0.0 0.0 0.00 0.00 0.00 44 1022.3
20260902113742 22 0.0 0.0 0.00 0.00 0.00 44 1022.3
20260902112742 22 0.0 0.0 0.00 0.00 0.00 44 1022.3
20260902111741 21 0.0 0.0 0.00 0.00 0.00 44 1022.4
20260902110741 21 0.0 0.0 0.00 0.00 0.00 45 1022.5
20260902105741 22 0.0 0.0 0.00 0.00 0.00 45 1022.6
20260902104741 21 0.0 0.0 0.00 0.00 0.00 45 1022.6
20260902103741 22 0.0 0.0 0.00 0.00 0.00 47 1022.8
20260902102741 23 0.0 0.0 0.00 0.00 0.00 42 1022.8
20260902101746 22 0.0 0.0 0.00 0.00 0.00 46 1022.9